Tracking 32577 objects as of 15-Dec-2025
HD Live streaming from Space Station
objects crossing your sky now

STARLINK-34709

Track STARLINK-34709 now!
10-day predictions
STARLINK-34709 is classified as:


NORAD ID: 64844
Int'l Code: 2025-152C
Perigee: 555.3 km
Apogee: 558.0 km
Inclination: 97.6 °
Period: 95.6 minutes
Semi major axis: 6927 km
RCS: Unknown
Launch date: July 19, 2025
Source: United States (US)
Launch site: AIR FORCE WESTERN TEST RANGE (AFWTR)
Your satellite tracking list
Your tracking list is empty




NASA's NSSDC Master Catalog

Two Line Element Set (TLE):
1 64844U 25152C   25348.14685218  .00002367  00000-0  16819-3 0  9994
2 64844  97.6025 201.1572 0001987  91.4878 268.6577 15.05649807 22546
Source of the keplerian elements: AFSPC